Location: Harbor View
(36.2448°N, 86.5797°W)
Time: 09:00:37
(UTC+00:00)

COSMO-SKYMED 1 - Pass Details

Date: 04 March 2021
Orbit: 621 x 623 km, 97.9° (Epoch: 13 April)

Event Time Altitude Azimuth Distance (km) Brightness Sun altitude
Rises 11:06:35 0° 169° (S) 2,888 6.1 -14.1°
Reaches altitude 10° 11:08:45 10° 170° (S) 1,986 5.3 -13.6°
Maximum altitude 11:13:05 81° 258° (WSW) 637 2.5 -12.7°
Drops below altitude 10° 11:17:27 10° 346° (NNW) 2,001 5.0 -11.9°
Sets 11:19:39 0° 347° (NNW) 2,911 5.9 -11.4°
